Location: ?????????
(44.2517°N, 135.2292°E)
Time: 14:31:59
(UTC+00:00)

USA 281 - Pass Details

Date: 19 May 2025
Orbit: 1078 x 1081 km, 106.0° (Epoch: 28 April)

Event Time Altitude Azimuth Distance (km) Brightness Sun altitude
Rises 18:24:51 0° 18° (NNE) 3,886 7.3 -10.0°
Reaches altitude 10° 18:27:33 10° 11° (N) 2,927 6.3 -9.6°
Maximum altitude 18:33:27 37° 307° (NW) 1,613 4.1 -8.8°
Drops below altitude 10° 18:39:20 10° 242° (WSW) 2,915 4.8 -8.0°
Enters shadow 18:39:36 - 241° (WSW) 3,005 4.9 -8.0°
